Location: Little Ridge
(33.0629°N, 96.4547°W)
Time: 22:28:12
(UTC+00:00)

Meteor 2-15 Rocket - Visible Passes

Search period start: 28 June 2022 00:00
Search period end: 08 July 2022 00:00
Orbit: 940 x 955 km, 82.5° (Epoch: 28 June)

Date Brightness Start Highest point End Pass type
(mag) Time Alt. Az. Time Alt. Az. Time Alt. Az.
29 Jun 7.6 10:13:03 10° NE 10:15:09 12° ENE 10:17:15 10° E visible
30 Jun 7.2 10:28:06 10° NNE 10:32:30 20° ENE 10:36:52 10° ESE visible
01 Jul 6.4 10:44:15 10° NNE 10:49:44 33° ENE 10:55:09 10° SE visible
04 Jul 7.2 09:51:48 10° NNE 09:55:39 17° ENE 09:59:28 10° ESE visible
05 Jul 6.6 10:07:45 10° NNE 10:12:55 28° ENE 10:18:02 10° SE visible
06 Jul 5.7 10:24:12 10° N 10:30:05 45° E 10:35:53 10° SSE visible
07 Jul 4.7 10:40:59 10° N 10:47:09 75° E 10:53:14 10° SSE visible
